| time (UTC) | temp F | wind direction | speed MPH | gust MPH | rain 1hr in | rain 24hr in | rain mn in | humidity % | barometer mb |
| 20260505234157 | 60 | 0 | 0.0 | 0.0 | 0.00 | 2.73 | 0.00 | 93 | 1010.6 |
| 20260505233257 | 60 | 0 | 0.0 | 0.0 | 0.00 | 2.73 | 0.00 | 93 | 1010.4 |
| 20260505232357 | 60 | 0 | 0.0 | 0.0 | 0.00 | 2.73 | 0.00 | 93 | 1010.7 |
| 20260505231457 | 60 | 0 | 0.0 | 0.0 | 0.00 | 2.73 | 0.00 | 93 | 1011.1 |
| 20260505230557 | 60 | 0 | 0.0 | 0.0 | 0.00 | 2.73 | 0.00 | 93 | 1010.8 |
| 20260505225657 | 60 | 0 | 0.0 | 0.0 | 0.00 | 2.73 | 0.00 | 93 | 1011.0 |
| 20260505224757 | 60 | 0 | 0.0 | 0.0 | 0.00 | 2.73 | 0.00 | 93 | 1011.0 |
| 20260505223900 | 61 | 203 | 0.0 | 2.0 | 0.00 | 2.73 | 0.00 | 93 | 1011.0 |
| 20260505222957 | 61 | 187 | 1.0 | 4.0 | 0.00 | 2.73 | 0.00 | 93 | 1011.4 |
| 20260505222057 | 61 | 183 | 2.0 | 4.0 | 0.00 | 2.73 | 0.00 | 93 | 1011.4 |
| 20260505221158 | 61 | 166 | 0.0 | 2.0 | 0.00 | 2.73 | 0.00 | 93 | 1011.6 |
| 20260505215412 | 61 | 181 | 0.0 | 2.0 | 0.26 | 2.73 | 2.73 | 93 | 1011.4 |
| 20260505214458 | 61 | 181 | 0.0 | 2.0 | 0.26 | 2.73 | 2.73 | 93 | 1011.5 |
| 20260505213559 | 61 | 0 | 0.0 | 0.0 | 0.26 | 2.73 | 2.73 | 92 | 1011.6 |
| 20260505212657 | 61 | 181 | 0.0 | 2.0 | 0.26 | 2.73 | 2.73 | 92 | 1011.7 |
| 20260505211802 | 62 | 186 | 0.0 | 2.0 | 0.26 | 2.73 | 2.73 | 92 | 1011.4 |
| 20260505210857 | 62 | 158 | 0.0 | 2.0 | 0.17 | 2.62 | 2.62 | 92 | 1012.0 |
| 20260505205957 | 62 | 158 | 1.0 | 2.0 | 0.04 | 2.49 | 2.49 | 92 | 1012.0 |
| 20260505205105 | 62 | 0 | 0.0 | 0.0 | 0.01 | 2.47 | 2.47 | 92 | 1012.0 |
| 20260505203258 | 62 | 0 | 0.0 | 0.0 | 0.08 | 2.47 | 2.47 | 92 | 1012.0 |
| 20260505202357 | 62 | 0 | 0.0 | 0.0 | 0.18 | 2.47 | 2.47 | 92 | 1011.9 |
| 20260505201457 | 62 | 0 | 0.0 | 0.0 | 0.18 | 2.47 | 2.47 | 91 | 1011.8 |
| 20260505200559 | 62 | 0 | 0.0 | 0.0 | 0.17 | 2.46 | 2.46 | 91 | 1011.9 |
| 20260505195712 | 62 | 0 | 0.0 | 0.0 | 0.17 | 2.46 | 2.46 | 91 | 1011.8 |
| 20260505194757 | 62 | 179 | 0.0 | 2.0 | 0.14 | 2.43 | 2.43 | 90 | 1011.8 |
| 20260505193857 | 63 | 130 | 1.0 | 2.0 | 0.09 | 2.39 | 2.39 | 90 | 1011.7 |
| 20260505190257 | 63 | 0 | 0.0 | 0.0 | 0.00 | 2.29 | 2.29 | 88 | 1011.4 |
| 20260505184457 | 63 | 0 | 0.0 | 0.0 | 0.00 | 2.29 | 2.29 | 86 | 1011.4 |
| 20260505183601 | 64 | 0 | 0.0 | 0.0 | 0.00 | 2.29 | 2.29 | 85 | 1011.3 |
| 20260505182659 | 65 | 0 | 0.0 | 0.0 | 0.00 | 2.29 | 2.29 | 84 | 1011.6 |
| 20260505181800 | 65 | 23 | 0.0 | 2.0 | 0.00 | 2.29 | 2.29 | 84 | 1011.3 |
| 20260505180857 | 65 | 6 | 0.0 | 2.0 | 0.00 | 2.29 | 2.29 | 83 | 1011.2 |
| 20260505175957 | 65 | 1 | 0.0 | 2.0 | 0.00 | 2.29 | 2.29 | 82 | 1011.2 |
| 20260505175057 | 65 | 24 | 0.0 | 4.0 | 0.00 | 2.29 | 2.29 | 82 | 1011.4 |
| 20260505174157 | 65 | 34 | 2.0 | 4.0 | 0.00 | 2.29 | 2.29 | 82 | 1011.3 |
| 20260505173257 | 65 | 46 | 1.0 | 2.0 | 0.00 | 2.29 | 2.29 | 82 | 1011.3 |
| 20260505172357 | 66 | 22 | 0.0 | 2.0 | 0.00 | 2.29 | 2.29 | 82 | 1011.3 |
| 20260505171457 | 66 | 23 | 1.0 | 2.0 | 0.00 | 2.29 | 2.29 | 81 | 1011.3 |
| 20260505170557 | 66 | 48 | 0.0 | 2.0 | 0.00 | 2.29 | 2.29 | 81 | 1011.4 |
| 20260505165657 | 66 | 35 | 1.0 | 2.0 | 0.00 | 2.29 | 2.29 | 81 | 1011.2 |
| 20260505164758 | 67 | 27 | 0.0 | 2.0 | 0.00 | 2.29 | 2.29 | 81 | 1011.2 |
| 20260505163857 | 67 | 33 | 0.0 | 2.0 | 0.00 | 2.29 | 2.29 | 81 | 1011.3 |
| 20260505162957 | 67 | 5 | 0.0 | 2.0 | 0.00 | 2.29 | 2.29 | 82 | 1011.2 |
| 20260505162102 | 67 | 31 | 0.0 | 2.0 | 0.00 | 2.29 | 2.29 | 82 | 1011.2 |
| 20260505161159 | 66 | 38 | 1.0 | 2.0 | 0.00 | 2.29 | 2.29 | 83 | 1011.1 |
| 20260505160257 | 66 | 19 | 2.0 | 4.0 | 0.00 | 2.29 | 2.29 | 83 | 1011.1 |
| 20260505151759 | 65 | 31 | 1.0 | 7.0 | 0.00 | 2.29 | 2.29 | 88 | 1011.1 |
| 20260505150857 | 65 | 34 | 2.0 | 7.0 | 0.00 | 2.29 | 2.29 | 88 | 1011.2 |
| 20260505140557 | 65 | 23 | 0.0 | 2.0 | 0.01 | 2.29 | 2.29 | 92 | 1011.5 |
| 20260505130258 | 63 | 0 | 0.0 | 0.0 | 0.06 | 2.28 | 2.28 | 93 | 1011.7 |
| 20260505124457 | 63 | 1 | 0.0 | 2.0 | 0.54 | 2.26 | 2.26 | 93 | 1011.8 |
| 20260505123557 | 63 | 1 | 0.0 | 2.0 | 0.57 | 2.26 | 2.26 | 93 | 1011.8 |
| 20260505122657 | 62 | 1 | 0.0 | 2.0 | 0.57 | 2.26 | 2.26 | 93 | 1011.8 |
| 20260505120858 | 62 | 1 | 0.0 | 2.0 | 0.54 | 2.22 | 2.22 | 93 | 1012.2 |
| 20260505115957 | 61 | 106 | 0.0 | 8.0 | 0.58 | 2.21 | 2.22 | 93 | 1012.2 |
| 20260505115057 | 61 | 163 | 4.0 | 6.0 | 0.43 | 2.01 | 2.06 | 93 | 1012.0 |
| 20260505113257 | 61 | 158 | 0.0 | 2.0 | 0.19 | 1.69 | 1.69 | 93 | 1011.8 |
| 20260505111457 | 60 | 16 | 0.0 | 2.0 | 0.20 | 1.68 | 1.68 | 93 | 1012.1 |
| 20260505102058 | 60 | 0 | 0.0 | 0.0 | 0.38 | 1.48 | 1.48 | 92 | 1012.0 |
| 20260505101158 | 60 | 61 | 0.0 | 4.0 | 0.38 | 1.48 | 1.48 | 92 | 1011.9 |
| 20260505100257 | 59 | 352 | 0.0 | 2.0 | 0.26 | 1.33 | 1.35 | 92 | 1011.7 |
| 20260505095358 | 59 | 48 | 1.0 | 2.0 | 0.11 | 1.17 | 1.18 | 92 | 1012.3 |
| 20260505094458 | 60 | 139 | 0.0 | 2.0 | 0.13 | 1.15 | 1.15 | 92 | 1012.2 |
| 20260505093558 | 60 | 303 | 0.0 | 2.0 | 0.11 | 1.11 | 1.11 | 92 | 1012.3 |
| 20260505092658 | 60 | 226 | 0.0 | 2.0 | 0.09 | 1.10 | 1.11 | 92 | 1012.3 |
| 20260505085958 | 59 | 106 | 0.0 | 2.0 | 0.06 | 1.06 | 1.07 | 92 | 1012.0 |
| 20260505085058 | 59 | 172 | 0.0 | 2.0 | 0.05 | 1.05 | 1.05 | 92 | 1012.1 |
| 20260505084158 | 59 | 161 | 2.0 | 2.0 | 0.05 | 1.02 | 1.02 | 92 | 1012.0 |
| 20260505083258 | 58 | 107 | 0.0 | 2.0 | 0.14 | 1.00 | 1.00 | 92 | 1011.8 |
| 20260505081458 | 58 | 3 | 0.0 | 4.0 | 0.14 | 1.00 | 1.00 | 91 | 1011.8 |
| 20260505080558 | 58 | 359 | 2.0 | 4.0 | 0.14 | 1.00 | 1.00 | 92 | 1011.8 |
| 20260505072958 | 58 | 98 | 2.0 | 7.0 | 0.00 | 0.86 | 0.86 | 92 | 1012.0 |
| 20260505072058 | 57 | 169 | 2.0 | 6.0 | 0.00 | 0.86 | 0.86 | 92 | 1011.9 |
| 20260505071158 | 57 | 117 | 1.0 | 4.0 | 0.00 | 0.86 | 0.86 | 92 | 1011.6 |
| 20260505070258 | 57 | 89 | 0.0 | 2.0 | 0.00 | 0.86 | 0.86 | 92 | 1012.0 |
| 20260505065358 | 57 | 155 | 1.0 | 2.0 | 0.00 | 0.86 | 0.86 | 92 | 1011.8 |
| 20260505064458 | 57 | 66 | 1.0 | 2.0 | 0.00 | 0.86 | 0.86 | 92 | 1012.3 |
| 20260505063558 | 57 | 1 | 0.0 | 2.0 | 0.01 | 0.86 | 0.86 | 92 | 1012.6 |
| 20260505062658 | 57 | 1 | 0.0 | 2.0 | 0.04 | 0.86 | 0.86 | 92 | 1012.5 |
| 20260505061758 | 56 | 1 | 0.0 | 2.0 | 0.07 | 0.86 | 0.86 | 92 | 1012.4 |
| 20260505060858 | 56 | 353 | 0.0 | 4.0 | 0.11 | 0.86 | 0.86 | 92 | 1012.6 |
| 20260505055058 | 56 | 158 | 0.0 | 2.0 | 0.15 | 0.86 | 0.86 | 92 | 1012.5 |
| 20260505054158 | 56 | 166 | 0.0 | 2.0 | 0.21 | 0.86 | 0.86 | 92 | 1012.5 |
| 20260505053258 | 56 | 181 | 0.0 | 2.0 | 0.30 | 0.85 | 0.85 | 92 | 1012.6 |
| 20260505052358 | 56 | 195 | 0.0 | 2.0 | 0.39 | 0.80 | 0.81 | 92 | 1012.6 |
| 20260505050558 | 56 | 181 | 0.0 | 4.0 | 0.45 | 0.74 | 0.74 | 92 | 1012.5 |
| 20260505041158 | 56 | 356 | 0.0 | 2.0 | 0.05 | 0.32 | 0.32 | 91 | 1012.4 |
| 20260505040258 | 56 | 337 | 0.0 | 2.0 | 0.01 | 0.28 | 0.28 | 91 | 1012.4 |
| 20260505034458 | 56 | 340 | 1.0 | 4.0 | 0.05 | 0.28 | 0.28 | 91 | 1012.5 |
| 20260505033558 | 56 | 339 | 1.0 | 4.0 | 0.05 | 0.28 | 0.28 | 91 | 1012.6 |
| 20260505032659 | 56 | 334 | 1.0 | 4.0 | 0.06 | 0.28 | 0.28 | 91 | 1012.9 |
| 20260505031758 | 56 | 337 | 0.0 | 2.0 | 0.06 | 0.27 | 0.27 | 91 | 1012.8 |
| 20260505030858 | 56 | 338 | 0.0 | 4.0 | 0.06 | 0.27 | 0.27 | 91 | 1013.0 |
| 20260505025958 | 56 | 341 | 2.0 | 6.0 | 0.07 | 0.27 | 0.27 | 91 | 1013.2 |
| 20260505025058 | 56 | 298 | 2.0 | 4.0 | 0.07 | 0.25 | 0.26 | 91 | 1012.9 |
| 20260505023258 | 57 | 71 | 0.0 | 2.0 | 0.09 | 0.22 | 0.22 | 91 | 1013.4 |
| 20260505022358 | 57 | 1 | 0.0 | 2.0 | 0.12 | 0.22 | 0.22 | 91 | 1013.8 |
| 20260505021458 | 57 | 1 | 0.0 | 2.0 | 0.13 | 0.21 | 0.21 | 90 | 1013.8 |
| 20260505020558 | 57 | 1 | 0.0 | 2.0 | 0.13 | 0.21 | 0.21 | 90 | 1013.7 |
| 20260505015658 | 57 | 1 | 0.0 | 2.0 | 0.14 | 0.19 | 0.19 | 90 | 1013.7 |
| 20260505014758 | 57 | 1 | 1.0 | 2.0 | 0.13 | 0.15 | 0.17 | 90 | 1013.8 |
| 20260505013858 | 57 | 1 | 0.0 | 2.0 | 0.13 | 0.14 | 0.14 | 89 | 1013.8 |
| 20260505012958 | 57 | 1 | 0.0 | 2.0 | 0.13 | 0.13 | 0.13 | 89 | 1014.1 |
| 20260505012058 | 58 | 0 | 0.0 | 0.0 | 0.09 | 0.09 | 0.09 | 88 | 1014.2 |
| 20260505005358 | 58 | 1 | 1.0 | 2.0 | 0.04 | 0.04 | 0.04 | 85 | 1014.4 |
| 20260505004459 | 58 | 1 | 0.0 | 2.0 | 0.01 | 0.01 | 0.01 | 83 | 1014.7 |
| 20260505002658 | 60 | 0 | 0.0 | 0.0 | 0.00 | 0.00 | 0.00 | 78 | 1014.9 |
| 20260505000858 | 60 | 0 | 0.0 | 0.0 | 0.00 | 0.00 | 0.00 | 75 | 1014.7 |
| 20260504235958 | 60 | 0 | 0.0 | 0.0 | 0.00 | 0.00 | 0.00 | 75 | 1014.9 |
| 20260504235059 | 60 | 0 | 0.0 | 0.0 | 0.00 | 0.00 | 0.00 | 75 | 1015.0 |